Orbital Elements at Epoch 2459200.5 (2020-Dec-17.0) TDB
Reference: JPL 27 (heliocentric ecliptic J2000)
Element | Value | Uncertainty (1-sigma) | Units |
e | .1922984939500961 | 3.8265e-08 | |
a | 2.68571885972794 | 1.2614e-08 | au |
q | 2.169259167828888 | 1.0175e-07 | au |
i | 12.56625355054957 | 5.0196e-06 | deg |
node | 102.6551086061968 | 1.7924e-05 | deg |
peri | 300.3041455789435 | 2.1536e-05 | deg |
M | 26.97364284027246 | 1.1837e-05 | deg |
tp | 2459080.044578369037 (2020-Aug-18.54457837) | 5.2674e-05 | TDB |
period | 1607.641653889 4.40 | 1.1326e-05 3.101e-08 | d yr |
n | .2239305003880275 | 1.5776e-09 | deg/d |
Q | 3.202178551626992 | 1.5039e-08 | au |
|
| | Orbit Determination Parameters
Additional Information
|